Location: Newark
(49.2191°N, 12.6671°E)
Time: 03:22:33
(UTC+00:00)

Explorer 7 - Visible Passes

Search period start: 28 January 2020 00:00
Search period end: 07 February 2020 00:00
Orbit: 485 x 679 km, 50.3° (Epoch: 27 January)

Date Brightness Start Highest point End Pass type
(mag) Time Alt. Az. Time Alt. Az. Time Alt. Az.
01 Feb 9.1 18:13:50 10° S 18:14:19 12° S 18:14:19 12° S visible
02 Feb 8.6 18:17:47 10° SSW 18:19:32 19° S 18:19:32 19° S visible
03 Feb 8.0 18:22:08 10° SSW 18:24:40 28° S 18:24:40 28° S visible
04 Feb 8.9 16:49:05 10° SSE 16:50:43 12° SE 16:52:20 10° ESE visible
04 Feb 7.5 18:26:44 10° SW 18:29:43 39° SSW 18:29:43 39° SSW visible
05 Feb 8.5 16:52:33 10° S 16:55:24 19° SE 16:58:10 10° E visible
05 Feb 7.2 18:31:29 10° WSW 18:34:42 51° SSW 18:34:42 51° SSW visible
06 Feb 8.0 16:56:41 10° SSW 17:00:08 27° SE 17:03:19 11° E visible
06 Feb 7.1 18:36:20 10° WSW 18:39:38 58° WSW 18:39:38 58° WSW visible
